Tracking 30922 objects as of 2-Jul-2025
HD Live streaming from Space Station
objects crossing your sky now

ERS 9

Track ERS 9 now!
10-day predictions
ERS 9 is classified as:


NORAD ID: 635
Int'l Code: 1963-030B
Perigee: 3,661.2 km
Apogee: 3,755.3 km
Inclination: 88.4 °
Period: 167.8 minutes
Semi major axis: 10079 km
RCS: 0.0885 m2 (small)
Launch date: July 19, 1963
Source: United States (US)
Launch site: AIR FORCE WESTERN TEST RANGE (AFWTR)
Your satellite tracking list
OBJECT H
Track 1 satellite(s)




NASA's NSSDC Master Catalog

Two Line Element Set (TLE):
1 00635U 63030B   25181.38634456  .00000005  00000-0  12121-2 0  9996
2 00635  88.4132 234.4525 0046656  23.9381 336.3626  8.57948390940274
Source of the keplerian elements: AFSPC